DW7680 Weather Reports


Display with metric or nautical units.
time (UTC)temp
F
wind
direction
speed
MPH
gust
MPH
rain 1hr
in
rain 24hr
in
rain mn
in
humidity
%
barometer
mb
20260905014606 66 271 2.0 3.0 0.00 0.07 0.07 77 1010.3
20260905013059 68 259 1.0 3.0 0.00 0.07 0.07 74 1010.3
20260905011605 70 259 1.0 2.0 0.00 0.07 0.07 68 1010.2
20260905010059 71 259 1.0 2.0 0.00 0.07 0.07 66 1009.9
20260905010001 72 259 1.0 2.0 0.00 0.07 0.07 65 1009.9
20260905004600 72 259 0.0 1.0 0.00 0.07 0.07 64 1010.0
20260905003100 73 259 0.0 3.0 0.00 0.07 0.07 63 1010.1
20260905001608 73 270 1.0 3.0 0.00 0.07 0.07 63 1010.1
20260905000118 72 350 0.0 4.0 0.00 0.07 0.07 65 1010.4
20260905000002 71 350 1.0 4.0 0.00 0.07 0.07 65 1010.4
20260904234600 70 277 2.0 6.0 0.00 0.08 0.07 68 1010.4
20260904233103 70 316 2.0 4.0 0.00 0.08 0.07 67 1010.3
20260904231603 69 311 1.0 5.0 0.00 0.08 0.07 70 1010.3
20260904230100 68 307 1.0 3.0 0.00 0.08 0.07 70 1010.1
20260904230002 68 307 1.0 3.0 0.00 0.08 0.07 69 1010.1
20260904224604 67 308 1.0 4.0 0.00 0.08 0.07 72 1010.5
20260904223100 67 63 1.0 8.0 0.00 0.08 0.07 71 1010.5
20260904221603 71 197 4.0 10.0 0.00 0.08 0.07 64 1010.6
20260904220115 73 164 5.0 10.0 0.00 0.08 0.07 63 1010.5
20260904220001 73 130 3.0 10.0 0.00 0.08 0.07 62 1010.5
20260904214600 73 118 3.0 8.0 0.00 0.27 0.07 61 1010.3
20260904213059 73 140 2.0 9.0 0.00 0.27 0.07 61 1010.6
20260904211601 73 254 3.0 6.0 0.00 0.27 0.07 64 1010.7
20260904210117 72 277 2.0 8.0 0.00 0.27 0.07 66 1011.1
20260904204558 72 244 3.0 8.0 0.00 0.44 0.07 66 1011.2
20260904203058 73 259 6.0 10.0 0.00 0.44 0.07 66 1011.3
20260904201558 71 287 4.0 8.0 0.00 0.44 0.07 68 1011.4
20260904200059 71 248 3.0 12.0 0.00 0.44 0.07 73 1011.7
20260904200003 71 273 3.0 12.0 0.00 0.44 0.07 73 1011.7
20260904194609 68 265 5.0 9.0 0.00 0.61 0.07 78 1012.1
20260904193114 64 249 5.0 9.0 0.01 0.61 0.07 83 1012.1
20260904191600 63 226 5.0 12.0 0.06 0.61 0.07 86 1012.3
20260904190100 61 261 7.0 14.0 0.07 0.61 0.07 87 1012.7
20260904190002 61 267 8.0 14.0 0.07 0.61 0.07 87 1012.7
20260904184621 61 270 5.0 11.0 0.07 0.61 0.07 86 1012.3
20260904183100 61 263 4.0 14.0 0.06 0.60 0.06 84 1012.4
20260904181609 63 266 8.0 13.0 0.01 0.55 0.01 78 1012.4
20260904180116 68 270 7.0 12.0 0.00 0.54 0.00 71 1012.3
20260904174613 72 251 5.0 8.0 0.00 0.54 0.00 65 1012.2
20260904173101 76 265 2.0 8.0 0.00 0.54 0.00 52 1012.1
20260904171605 77 82 7.0 12.0 0.00 0.54 0.00 50 1012.1
20260904170100 77 278 4.0 8.0 0.00 0.54 0.00 46 1012.2
20260904164601 77 186 1.0 6.0 0.00 0.54 0.00 52 1012.3
20260904163108 75 341 1.0 6.0 0.00 0.54 0.00 56 1012.2
20260904161600 74 242 3.0 10.0 0.00 0.54 0.00 56 1012.2
20260904160059 73 252 4.0 10.0 0.00 0.54 0.00 57 1012.0
20260904160002 73 238 4.0 10.0 0.00 0.54 0.00 57 1012.0
20260904154558 73 304 4.0 11.0 0.00 0.54 0.00 60 1012.0
20260904153110 72 281 4.0 11.0 0.00 0.54 0.00 62 1011.9
20260904151601 70 257 5.0 11.0 0.00 0.54 0.00 64 1012.0
20260904150100 70 290 5.0 10.0 0.00 0.54 0.00 65 1012.0
20260904144558 69 250 6.0 13.0 0.00 0.54 0.00 66 1011.9
20260904143103 67 265 5.0 11.0 0.00 0.54 0.00 69 1012.0
20260904141559 66 306 5.0 12.0 0.00 0.54 0.00 71 1012.1
20260904140058 64 279 5.0 9.0 0.00 0.54 0.00 73 1012.1
20260904134558 63 255 3.0 6.0 0.00 0.54 0.00 74 1012.0
20260904133107 62 268 4.0 9.0 0.00 0.54 0.00 77 1011.9
20260904131558 60 266 5.0 7.0 0.00 0.54 0.00 78 1011.6
20260904130058 59 244 4.0 7.0 0.00 0.54 0.00 80 1011.5
20260904124607 58 268 4.0 7.0 0.00 0.54 0.00 80 1011.3
20260904123113 58 280 3.0 7.0 0.00 0.54 0.00 80 1011.2
20260904121602 57 286 3.0 6.0 0.00 0.54 0.00 80 1011.0
20260904120104 59 273 4.0 7.0 0.00 0.54 0.00 76 1011.0
20260904114559 60 263 4.0 7.0 0.00 0.54 0.00 76 1010.9
20260904113102 60 276 3.0 6.0 0.00 0.54 0.00 75 1010.8
20260904111602 61 269 4.0 6.0 0.00 0.54 0.00 74 1010.7
20260904110108 60 267 4.0 7.0 0.00 0.54 0.00 75 1010.8
20260904104602 61 315 3.0 6.0 0.00 0.54 0.00 74 1010.9
20260904103058 62 279 2.0 6.0 0.00 0.54 0.00 73 1010.8
20260904101609 62 298 0.0 2.0 0.00 0.54 0.00 73 1011.1
20260904094559 64 284 3.0 10.0 0.00 0.54 0.00 71 1010.9
20260904093115 64 323 5.0 14.0 0.00 0.54 0.00 70 1010.9
20260904091558 64 296 4.0 9.0 0.00 0.54 0.00 69 1011.1
20260904090059 65 279 11.0 20.0 0.00 0.54 0.00 68 1011.1
20260904084601 65 259 8.0 15.0 0.00 0.54 0.00 68 1011.0
20260904083058 64 284 2.0 7.0 0.00 0.54 0.00 69 1011.0
20260904081559 63 279 2.0 9.0 0.00 0.54 0.00 69 1011.3
20260904074558 63 277 0.0 3.0 0.00 0.54 0.00 69 1011.7
20260904073058 64 255 1.0 6.0 0.00 0.54 0.00 69 1011.9
20260904071558 64 260 4.0 13.0 0.00 0.54 0.00 67 1011.9
20260904070058 64 254 4.0 10.0 0.00 0.54 0.00 68 1012.0
20260904070003 64 259 4.0 10.0 0.00 0.54 0.00 68 1012.0
20260904064600 65 250 1.0 10.0 0.00 0.54 0.00 68 1012.2
20260904063100 65 245 3.0 16.0 0.00 0.54 0.00 66 1012.4
20260904061600 62 239 6.0 11.0 0.00 0.54 0.00 71 1012.0
20260904060101 60 258 2.0 7.0 0.00 0.54 0.00 76 1012.0
20260904060005 60 223 1.0 7.0 0.00 0.54 0.00 76 1011.9
20260904054502 60 281 4.0 9.0 0.00 0.54 0.54 76 1011.7
20260904053002 60 258 4.0 7.0 0.00 0.54 0.54 78 1011.7
20260904051505 60 271 4.0 9.0 0.00 0.54 0.54 79 1011.7
20260904050101 60 261 3.0 6.0 0.00 0.54 0.54 78 1011.7
20260904050005 60 259 3.0 8.0 0.00 0.54 0.54 78 1011.7
20260904044610 60 281 3.0 7.0 0.00 0.54 0.54 79 1011.8
20260904043100 60 327 2.0 4.0 0.00 0.54 0.54 78 1011.9
20260904041601 60 309 3.0 8.0 0.00 0.54 0.54 78 1011.9
20260904040100 59 286 4.0 6.0 0.00 0.54 0.54 82 1011.9
20260904040002 59 268 3.0 6.0 0.00 0.54 0.54 82 1011.9
20260904034501 59 282 2.0 5.0 0.00 0.54 0.54 83 1012.0
20260904033002 59 286 2.0 7.0 0.00 0.54 0.54 83 1011.8
20260904031501 59 301 2.0 10.0 0.00 0.54 0.54 82 1011.8
20260904030001 58 267 4.0 8.0 0.00 0.54 0.54 84 1011.5
20260904024601 58 253 4.0 8.0 0.00 0.54 0.54 86 1011.3
20260904023103 58 272 5.0 10.0 0.00 0.54 0.54 86 1011.0
20260904021601 58 272 4.0 8.0 0.00 0.54 0.54 87 1010.6
20260904020059 58 269 4.0 7.0 0.00 0.54 0.54 87 1010.4